• în România
  • Lista ţărilor
  • Pe 7 zile
  • Temperatura apei
  • Hartă satelitară
  • Meteo pe hartă
  • Widget-uri
  • user-avatar
    Intrare

    Meteo pe oră la Mashkovo

    Astăzi, 23 Mai, Miercuri

    Timp Temperatura Precipitaţii Vânt Presiune Umiditate
    00:00 +14°C° 0 mm 1 m/s 750 mmHg 93%
    01:00 +14°C° 0 mm 1 m/s 750 mmHg 93%
    02:00 +13°C° 0 mm 1 m/s 750 mmHg 93%
    03:00 +13°C° 0 mm 1 m/s 750 mmHg 94%
    04:00 +13°C° 0 mm 1 m/s 750 mmHg 93%
    05:00 +14°C° 0 mm 1 m/s 750 mmHg 93%
    06:00 +14°C° 0 mm 1 m/s 750 mmHg 92%
    07:00 +16°C° 0 mm 1 m/s 750 mmHg 86%
    08:00 +19°C° 0 mm 1 m/s 750 mmHg 81%
    09:00 +20°C° 0 mm 1 m/s 750 mmHg 75%
    10:00 +21°C° 0 mm 1 m/s 749 mmHg 70%
    11:00 +22°C° 0 mm 1 m/s 749 mmHg 64%
    12:00 +23°C° 0 mm 1 m/s 749 mmHg 59%
    13:00 +24°C° 0 mm 1 m/s 749 mmHg 57%
    14:00 +24°C° 0 mm 2 m/s 749 mmHg 56%
    15:00 +24°C° 0 mm 2 m/s 748 mmHg 55%
    16:00 +24°C° 0 mm 2 m/s 748 mmHg 57%
    17:00 +24°C° 0 mm 1 m/s 748 mmHg 59%
    18:00 +24°C° 0 mm 1 m/s 748 mmHg 60%
    19:00 +22°C° 0 mm 1 m/s 748 mmHg 66%
    20:00 +20°C° 0 mm 1 m/s 748 mmHg 72%
    21:00 +18°C° 0 mm 1 m/s 748 mmHg 78%
    22:00 +16°C° 0 mm 1 m/s 747 mmHg 80%
    23:00 +16°C° 0 mm 1 m/s 747 mmHg 82%

    Mâine, 24 Mai, Joi

    Timp Temperatura Precipitaţii Vânt Presiune Umiditate
    00:00 +15°C° 0 mm 1 m/s 747 mmHg 83%
    01:00 +14°C° 0 mm 1 m/s 747 mmHg 85%
    02:00 +14°C° 0 mm 1 m/s 747 mmHg 86%
    03:00 +14°C° 0 mm 1 m/s 747 mmHg 87%
    04:00 +14°C° 0 mm 1 m/s 747 mmHg 87%
    05:00 +14°C° 0 mm 1 m/s 747 mmHg 86%
    06:00 +15°C° 0 mm 1 m/s 747 mmHg 85%
    07:00 +17°C° 0 mm 2 m/s 747 mmHg 80%
    08:00 +19°C° 0 mm 2 m/s 747 mmHg 74%
    09:00 +20°C° 0 mm 2 m/s 747 mmHg 68%
    10:00 +21°C° 0 mm 2 m/s 747 mmHg 65%
    11:00 +22°C° 0 mm 3 m/s 747 mmHg 61%
    12:00 +24°C° 0 mm 3 m/s 747 mmHg 57%
    13:00 +25°C° 0,1 mm 3 m/s 747 mmHg 57%
    14:00 +25°C° 0,1 mm 3 m/s 746 mmHg 56%
    15:00 +25°C° 0,1 mm 4 m/s 746 mmHg 56%
    16:00 +25°C° 0,1 mm 3 m/s 746 mmHg 60%
    17:00 +24°C° 0,1 mm 3 m/s 746 mmHg 64%
    18:00 +24°C° 0,1 mm 3 m/s 746 mmHg 68%
    19:00 +21°C° 0 mm 3 m/s 746 mmHg 71%
    20:00 +19°C° 0 mm 3 m/s 746 mmHg 75%
    21:00 +18°C° 0 mm 3 m/s 747 mmHg 78%
    22:00 +17°C° 0 mm 4 m/s 747 mmHg 81%
    23:00 +15°C° 0 mm 4 m/s 747 mmHg 84%

    Poimâine, 25 Mai, Vineri

    Timp Temperatura Precipitaţii Vânt Presiune Umiditate
    00:00 +14°C° 0 mm 4 m/s 747 mmHg 86%
    01:00 +14°C° 0 mm 4 m/s 747 mmHg 87%
    02:00 +13°C° 0 mm 5 m/s 748 mmHg 88%
    03:00 +13°C° 0 mm 5 m/s 748 mmHg 89%
    04:00 +12°C° 0 mm 5 m/s 748 mmHg 84%
    05:00 +12°C° 0 mm 5 m/s 749 mmHg 80%
    06:00 +10°C° 0 mm 5 m/s 749 mmHg 75%
    07:00 +11°C° 0 mm 6 m/s 750 mmHg 68%
    08:00 +13°C° 0 mm 6 m/s 750 mmHg 62%
    09:00 +14°C° 0 mm 6 m/s 751 mmHg 55%
    10:00 +15°C° 0 mm 6 m/s 751 mmHg 53%
    11:00 +16°C° 0 mm 6 m/s 751 mmHg 51%
    12:00 +16°C° 0 mm 6 m/s 752 mmHg 49%
    13:00 +17°C° 0 mm 6 m/s 752 mmHg 49%
    14:00 +17°C° 0 mm 6 m/s 752 mmHg 48%
    15:00 +17°C° 0 mm 5 m/s 752 mmHg 48%
    16:00 +17°C° 0 mm 5 m/s 752 mmHg 51%
    17:00 +17°C° 0 mm 5 m/s 752 mmHg 54%
    18:00 +17°C° 0 mm 4 m/s 752 mmHg 57%
    19:00 +15°C° 0 mm 4 m/s 753 mmHg 60%
    20:00 +13°C° 0 mm 4 m/s 753 mmHg 63%
    21:00 +11°C° 0 mm 3 m/s 754 mmHg 65%
    22:00 +10°C° 0 mm 3 m/s 754 mmHg 65%
    23:00 +9°C° 0 mm 3 m/s 754 mmHg 65%

    26 Mai, Sâmbătă

    Timp Temperatura Precipitaţii Vânt Presiune Umiditate
    00:00 +9°C° 0 mm 2 m/s 755 mmHg 65%
    01:00 +8°C° 0 mm 2 m/s 755 mmHg 66%
    02:00 +8°C° 0 mm 2 m/s 755 mmHg 66%
    03:00 +9°C° 0 mm 1 m/s 756 mmHg 66%
    04:00 +9°C° 0 mm 1 m/s 756 mmHg 68%
    05:00 +10°C° 0 mm 1 m/s 756 mmHg 70%
    06:00 +10°C° 0 mm 1 m/s 757 mmHg 71%
    07:00 +12°C° 0 mm 2 m/s 757 mmHg 66%
    08:00 +14°C° 0 mm 2 m/s 757 mmHg 62%
    09:00 +16°C° 0 mm 2 m/s 757 mmHg 57%
    10:00 +17°C° 0 mm 3 m/s 757 mmHg 54%
    11:00 +18°C° 0 mm 3 m/s 757 mmHg 51%
    12:00 +20°C° 0 mm 4 m/s 757 mmHg 48%
    13:00 +20°C° 0 mm 4 m/s 757 mmHg 48%
    14:00 +21°C° 0 mm 3 m/s 756 mmHg 47%
    15:00 +21°C° 0 mm 3 m/s 756 mmHg 47%
    16:00 +21°C° 0 mm 3 m/s 756 mmHg 51%
    17:00 +21°C° 0 mm 2 m/s 756 mmHg 55%
    18:00 +21°C° 0 mm 2 m/s 755 mmHg 59%
    19:00 +19°C° 0 mm 2 m/s 755 mmHg 63%
    20:00 +17°C° 0 mm 2 m/s 755 mmHg 67%
    21:00 +15°C° 0 mm 2 m/s 755 mmHg 72%
    22:00 +14°C° 0 mm 2 m/s 755 mmHg 73%
    23:00 +14°C° 0 mm 2 m/s 755 mmHg 74%

    27 Mai, Duminică

    Timp Temperatura Precipitaţii Vânt Presiune Umiditate
    00:00 +13°C° 0 mm 2 m/s 755 mmHg 75%
    01:00 +13°C° 0 mm 2 m/s 755 mmHg 76%
    02:00 +12°C° 0 mm 2 m/s 755 mmHg 76%
    03:00 +12°C° 0 mm 2 m/s 755 mmHg 77%
    04:00 +11°C° 0 mm 3 m/s 755 mmHg 77%
    05:00 +11°C° 0 mm 3 m/s 755 mmHg 77%
    06:00 +12°C° 0 mm 3 m/s 755 mmHg 78%
    07:00 +14°C° 0 mm 4 m/s 755 mmHg 73%
    08:00 +17°C° 0 mm 4 m/s 755 mmHg 68%
    09:00 +19°C° 0 mm 4 m/s 754 mmHg 64%
    10:00 +20°C° 0 mm 5 m/s 754 mmHg 60%
    11:00 +21°C° 0 mm 5 m/s 754 mmHg 57%
    12:00 +22°C° 0 mm 5 m/s 753 mmHg 53%
    13:00 +22°C° 0 mm 6 m/s 753 mmHg 53%
    14:00 +22°C° 0 mm 6 m/s 752 mmHg 52%
    15:00 +23°C° 0 mm 6 m/s 752 mmHg 52%
    16:00 +22°C° 0 mm 5 m/s 752 mmHg 56%
    17:00 +22°C° 0 mm 5 m/s 751 mmHg 59%
    18:00 +22°C° 0 mm 4 m/s 751 mmHg 63%
    19:00 +20°C° 0 mm 4 m/s 751 mmHg 67%
    20:00 +18°C° 0 mm 4 m/s 751 mmHg 71%
    21:00 +17°C° 0 mm 4 m/s 751 mmHg 75%
    22:00 +15°C° 0 mm 4 m/s 751 mmHg 78%
    23:00 +16°C° 0 mm 3 m/s 751 mmHg 81%

    28 Mai, Luni

    Timp Temperatura Precipitaţii Vânt Presiune Umiditate
    00:00 +14°C° 0 mm 3 m/s 751 mmHg 84%
    01:00 +13°C° 0 mm 3 m/s 751 mmHg 87%
    02:00 +12°C° 0 mm 3 m/s 752 mmHg 90%
    03:00 +13°C° 0 mm 2 m/s 752 mmHg 94%
    04:00 +13°C° 0 mm 2 m/s 752 mmHg 92%
    05:00 +13°C° 0 mm 2 m/s 752 mmHg 90%
    06:00 +13°C° 0 mm 2 m/s 753 mmHg 88%
    07:00 +14°C° 0 mm 3 m/s 753 mmHg 80%
    08:00 +16°C° 0 mm 3 m/s 753 mmHg 72%
    09:00 +17°C° 0 mm 3 m/s 754 mmHg 64%
    10:00 +18°C° 0 mm 3 m/s 754 mmHg 59%
    11:00 +19°C° 0 mm 3 m/s 754 mmHg 54%
    12:00 +20°C° 0 mm 3 m/s 754 mmHg 49%
    13:00 +20°C° 0 mm 4 m/s 754 mmHg 47%
    14:00 +20°C° 0 mm 4 m/s 754 mmHg 46%
    15:00 +20°C° 0 mm 4 m/s 754 mmHg 45%
    16:00 +20°C° 0 mm 3 m/s 754 mmHg 48%
    17:00 +20°C° 0 mm 3 m/s 754 mmHg 51%
    18:00 +19°C° 0 mm 3 m/s 753 mmHg 54%
    19:00 +17°C° 0 mm 2 m/s 754 mmHg 56%
    20:00 +15°C° 0 mm 2 m/s 754 mmHg 59%
    21:00 +13°C° 0 mm 2 m/s 754 mmHg 62%
    22:00 +12°C° 0 mm 2 m/s 754 mmHg 62%
    23:00 +11°C° 0 mm 1 m/s 754 mmHg 62%
    Arată mai mult